Погода в Кесовой Горе

Россия / Тверская область     57°34′59″N   37°17′39″E
темп.,
°C
ветер,
м/с
пор.,
м/с
влажн.,
%
обл.,
%
осадки,
мм/ч
давл.,
гПа
погр.,
м
30 июня, чт
чт3000:00+11ссв22625 0.0 102110
03:00+11ссз2259100 0.0 102110
06:00+13ссз35744 0.0 1020118
09:00+18с47625 0.0 1019524
12:00+22ссз575079 0.0 10181460
15:00+23ссз5749100 0.0 10181930
18:00+22св36637 0.0 1017643
21:00+17с347689 0.0 101860
1 июля, пт
пт100:00+14св36771 0.0 101976
03:00+11св34725 0.0 102145
06:00+12всв24755 0.0 1022120
09:00+17всв34575 0.0 1022521
12:00+19св45475 0.0 10221346
15:00+20св45430 0.0 10221403
18:00+20св23541 0.0 10221209
21:00+15с11631 0.0 102211
2 июля, сб
сб200:00+12юв0062100 0.0 102211
03:00+11з22647 0.0 102314
06:00+13зсз35705 0.0 1022109
09:00+20зсз345611 0.0 1021394
12:00+24сз344617 0.0 1020821
15:00+26сз46480 0.0 10181263
18:00+25зсз35620 0.0 1016127
21:00+19з228672 2.6 101722
3 июля, вс
вс300:00+17ссз3489100 0.1 101758
03:00+16с3487100 0.1 101757
06:00+17ссв3488100 0.0 101794
09:00+21ссв357030 0.0 1017371
12:00+24ссв345373 0.0 10171189
15:00+26ссв34455 0.0 10171524
18:00+25всв24600 0.0 1016400
21:00+19всв22670 0.0 101611
4 июля, пн
пн400:00+16вюв12752 0.0 101711
03:00+15ююв1180100 0.0 101711
06:00+17ю127947 0.0 101844
09:00+22ююв216644 0.0 1018354
12:00+25юв225436 0.0 1017898
15:00+27вюв225076 0.0 10171037
18:00+26вюв246390 0.0 1015241
21:00+20юв337932 0.0 101637